Location: Kirtland Hills
(41.6239°N, 81.3071°W)
Time: 07:55:42
(UTC+00:00)

Timation 2 Rocket - Pass Details

Date: 29 October 2020
Orbit: 904 x 1077 km, 70.0° (Epoch: 26 November)

Event Time Altitude Azimuth Distance (km) Brightness Sun altitude
Rises 22:46:30 0° 335° (NNW) 3,757 7.2 -5.1°
Reaches altitude 10° 22:49:04 10° 337° (NNW) 2,826 6.6 -5.5°
Maximum altitude 22:55:44 79° 64° (ENE) 1,077 4.2 -6.7°
Drops below altitude 10° 23:02:35 10° 151° (SSE) 2,896 6.3 -8.0°
Sets 23:05:14 0° 153° (SSE) 3,855 7.0 -8.5°
